sat.trackr.live / text

‹ back to catalog

STARLINK-31200

NORAD 58862 · 2024-019K

PAYLOAD ACTIVE UNKNOWN

§ Identity

Operator
Country
US
Launch date
2024-01-29
Launch site
AFETR
Launch vehicle
Mass (kg)
RCS (m²)

Purposes: comms

External: N2YO · Heavens-Above · Gunter

§ Orbital elements

Epoch: 2026-09-20T06:45:15.672096Z

Period
94.27 min
Inclination
43.0019°
Eccentricity
0.0000959
Mean motion
15.27574335 rev/d
Perigee alt
482.4 km
Apogee alt
483.7 km
Semi-major
6,861.2 km
B*
2.1774e-5
RAAN
229.8862°
Arg perigee
280.7801°
Mean anomaly
79.2943°
Rev number
14,884

§ Raw data

STARLINK-312001 58862U 24019K   26263.28143139  .00000337  00000+0  21774-4 0  99922 58862  43.0019 229.8862 0000959 280.7801  79.2943 15.27574335148845

JSON: /api/v1/satellites/58862 · /tle

For live sub-satellite position, see the globe view (requires WebGL).

§ Visibility from observer

Set your observer location to see the next 7 days of passes ≥ 10°. The values pass through the URL so the page stays shareable.

No JS? Fill the form by hand. The geolocation button needs JavaScript.